Location: Brivio
(45.7333°N, 9.4500°E)
Time: 20:37:06
(UTC+00:00)

N. Korean satellite - Pass Details

Date: 12 December 2019
Orbit: 454 x 507 km, 97.2° (Epoch: 28 January)

Event Time Altitude Azimuth Distance (km) Brightness Sun altitude
Rises 16:19:30 0° 166° (SSE) 2,599 10.4 -7.1°
Reaches altitude 10° 16:21:35 10° 167° (SSE) 1,717 9.5 -7.5°
Maximum altitude 16:25:17 89° 254° (WSW) 511 6.7 -8.1°
Drops below altitude 10° 16:29:00 10° 348° (NNW) 1,715 9.2 -8.7°
Sets 16:31:05 0° 348° (NNW) 2,597 10.1 -9.0°
